{"data":{"norad_id":59491,"intl_designator":"2024-071H","name":"STARLINK-31712","alt_names":[],"object_type":"PAYLOAD","status":"ACTIVE","operator":null,"country":"US","launch_date":"2024-04-13","launch_site_code":"AFETR","launch_vehicle":null,"mission":null,"orbit_class":"UNKNOWN","rcs_meters":null,"size_class":null,"mass_kg":null,"dimensions":null,"purposes":["comms"],"wikipedia_slug":null,"has_3d_model":false,"image_url":null,"decayed_at":null,"tle_current":{"epoch":"2026-09-21T04:40:03.785664Z","epoch_age_seconds":104947,"freshness":"FRESH","line1":"1 59491U 24071H   26264.19448826  .00001471  00000+0  62962-4 0  9995","line2":"2 59491  43.0007 327.0440 0000696 254.4257 105.6518 15.27577681137976","mean_motion":15.27577681,"eccentricity":6.96e-5,"inclination_deg":43.0007,"raan_deg":327.044,"arg_perigee_deg":254.4257,"mean_anomaly_deg":105.6518,"bstar":6.2962e-5,"rev_number":13797,"period_min":94.266891819035,"perigee_km":482.57850093311,"apogee_km":483.53357900427,"semimajor_km":6861.1930399687,"source":"CELESTRAK","updated_at":"2026-09-22T09:00:48.956869Z"}}}